Location: Dampvalley
(47.9094°N, 6.1967°E)
Time: 15:32:11
(UTC+00:00)

SO-50 - Pass Details

Date: 06 December 2022
Orbit: 584 x 695 km, 64.6° (Epoch: 26 January)

Event Time Altitude Azimuth Distance (km) Brightness Sun altitude
Rises 04:30:28 0° 183° (S) 2,993 ? -25.6°
Reaches altitude 10° 04:33:02 10° 170° (S) 2,102 ? -25.2°
Maximum altitude 04:37:01 26° 114° (ESE) 1,330 ? -24.6°
Drops below altitude 10° 04:41:04 10° 59° (ENE) 2,154 ? -23.9°
Sets 04:43:44 0° 47° (NE) 3,082 ? -23.4°
